EW2664 Weather Reports


Display with metric or nautical units.
time (UTC)temp
F
wind
direction
speed
MPH
gust
MPH
rain 1hr
in
rain 24hr
in
rain mn
in
humidity
%
barometer
mb
20260509233012 87 192 1.0 2.0 0.00 0.00 0.00 66 1012.2
20260509231517 87 111 1.0 2.0 0.00 0.00 0.00 65 1012.3
20260509230021 88 229 0.0 2.0 0.00 0.00 0.00 62 1012.1
20260509224525 89 138 0.0 2.0 0.00 0.00 0.00 60 1011.8
20260509223011 90 126 1.0 3.0 0.00 0.00 0.00 58 1011.7
20260509221514 91 184 0.0 3.0 0.00 0.00 0.00 56 1011.8
20260509220021 91 178 1.0 3.0 0.00 0.00 0.00 54 1011.9
20260509214524 92 179 0.0 2.0 0.00 0.00 0.00 53 1011.7
20260509213031 92 174 1.0 3.0 0.00 0.00 0.00 54 1011.7
20260509211512 92 118 1.0 3.0 0.00 0.00 0.00 54 1011.7
20260509210018 92 230 0.0 4.0 0.00 0.00 0.00 56 1011.7
20260509204523 93 66 1.0 3.0 0.00 0.00 0.00 56 1011.8
20260509203010 94 265 1.0 5.0 0.00 0.00 0.00 55 1012.0
20260509201509 95 213 1.0 2.0 0.00 0.00 0.00 54 1012.0
20260509200018 95 250 0.0 2.0 0.00 0.00 0.00 55 1012.1
20260509194524 95 92 1.0 3.0 0.00 0.00 0.00 54 1012.1
20260509193004 94 123 1.0 3.0 0.00 0.00 0.00 55 1012.2
20260509191510 97 138 1.0 3.0 0.00 0.00 0.00 51 1012.3
20260509190012 97 185 1.0 3.0 0.00 0.00 0.00 50 1012.3
20260509184531 96 112 0.0 2.0 0.00 0.00 0.00 48 1012.5
20260509183031 96 66 0.0 2.0 0.00 0.00 0.00 47 1012.9
20260509181508 96 205 1.0 3.0 0.00 0.00 0.00 49 1013.2
20260509180015 95 200 1.0 4.0 0.00 0.00 0.00 50 1013.5
20260509174522 94 237 1.0 2.0 0.00 0.00 0.00 50 1013.6
20260509173022 94 200 1.0 2.0 0.00 0.00 0.00 50 1013.7
20260509171526 93 220 0.0 4.0 0.00 0.00 0.00 53 1013.9
20260509170011 93 233 0.0 3.0 0.00 0.00 0.00 53 1013.9
20260509164517 94 163 0.0 2.0 0.00 0.00 0.00 48 1014.2
20260509163031 93 119 0.0 6.0 0.00 0.00 0.00 51 1014.4
20260509161523 92 238 0.0 2.0 0.00 0.00 0.00 49 1014.4
20260509160009 92 188 0.0 2.0 0.00 0.00 0.00 54 1014.5
20260509154512 90 296 0.0 4.0 0.00 0.00 0.00 57 1014.5
20260509153042 89 260 0.0 2.0 0.00 0.00 0.00 61 1014.5
20260509151522 89 287 0.0 2.0 0.00 0.00 0.00 62 1014.6
20260509150025 89 321 0.0 5.0 0.00 0.00 0.00 62 1014.7
20260509144510 89 177 0.0 2.0 0.00 0.00 0.00 65 1014.7
20260509143018 88 234 0.0 3.0 0.00 0.00 0.00 65 1014.6
20260509141522 88 241 0.0 2.0 0.00 0.00 0.00 68 1014.5
20260509140023 87 186 0.0 2.0 0.00 0.00 0.00 71 1014.3
20260509134526 86 263 0.0 0.0 0.00 0.00 0.00 72 1014.4
20260509133013 85 218 0.0 1.0 0.00 0.00 0.00 74 1014.3
20260509131521 84 130 0.0 2.0 0.00 0.00 0.00 76 1014.4
20260509130035 83 95 0.0 1.0 0.00 0.00 0.00 76 1014.3
20260509124530 82 132 0.0 1.0 0.00 0.00 0.00 78 1014.2
20260509123017 81 88 0.0 0.0 0.00 0.00 0.00 79 1014.3
20260509121524 79 94 0.0 0.0 0.00 0.00 0.00 80 1014.4
20260509120024 78 34 0.0 1.0 0.00 0.00 0.00 81 1014.3
20260509114524 76 36 0.0 0.0 0.00 0.00 0.00 84 1014.4
20260509113027 74 360 0.0 0.0 0.00 0.00 0.00 86 1014.3
20260509111520 74 360 0.0 0.0 0.00 0.00 0.00 87 1014.2
20260509110023 73 360 0.0 0.0 0.00 0.00 0.00 89 1014.1
20260509104524 73 360 0.0 0.0 0.00 0.00 0.00 88 1013.9
20260509103026 73 352 0.0 0.0 0.00 0.00 0.00 88 1013.8
20260509101546 73 352 0.0 0.0 0.00 0.00 0.00 88 1013.8
20260509100025 73 360 0.0 0.0 0.00 0.00 0.00 88 1013.8
20260509094525 73 360 0.0 0.0 0.00 0.00 0.00 88 1013.6
20260509093027 73 31 0.0 0.0 0.00 0.00 0.00 89 1013.7
20260509091527 74 273 0.0 0.0 0.00 0.00 0.00 89 1013.6
20260509090032 74 271 0.0 2.0 0.00 0.00 0.00 88 1013.5
20260509084526 74 338 0.0 2.0 0.00 0.00 0.00 88 1013.5
20260509083038 74 284 0.0 0.0 0.00 0.00 0.00 88 1013.5
20260509081512 75 273 0.0 2.0 0.00 0.00 0.00 88 1013.5
20260509080021 76 294 0.0 2.0 0.00 0.00 0.00 87 1013.4
20260509074521 77 252 0.0 2.0 0.00 0.00 0.00 87 1013.5
20260509073004 77 184 0.0 0.0 0.00 0.00 0.00 87 1013.6
20260509071511 77 136 0.0 0.0 0.00 0.00 0.00 87 1013.6
20260509070016 77 136 0.0 0.0 0.00 0.00 0.00 87 1013.7
20260509064522 78 136 0.0 0.0 0.00 0.00 0.00 86 1013.7
20260509063025 78 136 0.0 0.0 0.00 0.00 0.00 86 1013.8
20260509061508 78 136 0.0 0.0 0.00 0.00 0.00 86 1013.9
20260509060014 78 136 0.0 0.0 0.00 0.00 0.00 86 1013.9
20260509054517 79 136 0.0 1.0 0.00 0.00 0.00 85 1014.1
20260509053028 79 136 0.0 0.0 0.00 0.00 0.00 85 1014.1
20260509051505 79 136 0.0 0.0 0.00 0.00 0.00 85 1014.3
20260509050017 79 136 0.0 2.0 0.00 0.00 0.00 85 1014.3
20260509044520 79 138 0.0 0.0 0.00 0.00 0.00 84 1014.4
20260509043024 79 99 0.0 0.0 0.00 0.00 0.00 84 1014.5
20260509041524 80 119 0.0 2.0 0.00 0.00 0.00 83 1014.6
20260509040024 80 163 0.0 2.0 0.00 0.00 0.00 83 1014.8
20260509034517 80 109 0.0 0.0 0.00 0.00 0.00 83 1015.0
20260509033018 80 159 0.0 0.0 0.00 0.00 0.00 82 1014.9
20260509031535 80 122 0.0 2.0 0.00 0.00 0.00 82 1014.7
20260509030042 80 111 0.0 0.0 0.00 0.00 0.00 82 1014.7
20260509024514 81 92 0.0 0.0 0.00 0.00 0.00 81 1014.7
20260509023021 81 133 0.0 0.0 0.00 0.00 0.00 80 1014.6
20260509021533 81 86 0.0 0.0 0.00 0.00 0.00 79 1014.4
20260509020027 81 103 0.0 0.0 0.00 0.00 0.00 78 1014.3
20260509014508 81 159 0.0 2.0 0.00 0.00 0.00 77 1014.2
20260509013017 81 101 0.0 0.0 0.00 0.00 0.00 76 1014.1
20260509011522 82 136 0.0 2.0 0.00 0.00 0.00 75 1013.9
20260509010003 82 155 0.0 1.0 0.00 0.00 0.00 74 1013.6
20260509004513 82 143 0.0 0.0 0.00 0.00 0.00 73 1013.4
20260509003014 83 96 0.0 3.0 0.00 0.00 0.00 71 1013.3
20260509001518 83 69 0.0 2.0 0.00 0.00 0.00 69 1013.1
20260509000024 83 57 1.0 4.0 0.00 0.00 0.00 68 1013.0
20260508234507 84 84 1.0 3.0 0.00 0.00 0.00 66 1012.9